Regional Weather Roundup
Issued by NWS

Home | Current Version | Previous Version | Text Only | Print | Product List | Glossary On
Versions: 1 2 3 4 5 6 7 8 9 10 11 12 13 14 15 16 17 18 19 20 21 22 23 24 25 26 27 28 29 30 31 32 33 34 35 36 37 38 39 40 41 42 43 44 45 46 47 48 49 50
000
ASUS43 KDTX 011710
RWRMI
MICHIGAN HOURLY REGIONAL WEATHER ROUNDUP
NATIONAL WEATHER SERVICE DETROIT/PONTIAC MI
100 PM EDT SAT OCT 01 2016

NOTE: "FAIR" INDICATES FEW OR NO CLOUDS BELOW 12,000 FEET WITH NO
SIGNIFICANT WEATHER AND/OR OBSTRUCTION TO VISIBILITY.

MIZ047>049-052>055-059>063-066>070-074>076-081>083-011800-
SOUTHEAST LOWER MICHIGAN

CITY           SKY/WX    TMP DP  RH WIND       PRES   REMARKS
ADRIAN         CLOUDY    65  55  70 S6        30.05F
ALMA           CLOUDY    61  60  97 CALM      30.07S
ANN ARBOR      PTSUNNY   66  57  72 E6        30.04F
BAD AXE        CLOUDY    59  58  98 SE5       30.10S
CARO           CLOUDY    60  59  96 E5        30.07F
DETROIT CITY   PTSUNNY   67  60  78 SE8       30.05F
DETROIT        CLOUDY    67  57  70 S8        30.05F
FLINT          CLOUDY    62  59  90 E7        30.06F
GROSSE ILE     CLOUDY    65  58  77 S8        30.04F
HILLSDALE      CLOUDY    63  52  67 E6        30.03F
HOWELL         PTSUNNY   64  59  83 S5        30.05S

CITY           SKY/WX    TMP DP  RH WIND       PRES   REMARKS
JACKSON        MOSUNNY   65  56  72 E5        30.03F
LAMBERTVILLE   PTSUNNY   67  54  62 SE5       30.04F
LANSING        PTSUNNY   64  58  80 SE6       30.05F
LAPEER         CLOUDY    60  59  96 E7        30.07F
MASON          MOSUNNY   66  56  69 SE6       30.04F
MONROE         CLOUDY    66  57  72 SE6       30.04F
MT. CLEMENS    PTSUNNY   62  62  99 NE9       30.04F
PONTIAC        CLOUDY    61  59  93 E6        30.05F
PORT HURON     CLOUDY    59  59 100 E7        30.08F
TRI CITIES     CLOUDY    61  59  93 E9        30.08F FOG
MIDLAND        CLOUDY    60  58  95 E5        30.07F
TROY           CLOUDY    64  61  88 N5        30.07S
SAGINAW HB     CLOUDY    61  59  94 E6        30.07S
$$
MIZ043>046-050>051-056>058-064>065-071>073-077>080-011800-
SOUTHWEST LOWER MICHIGAN

CITY           SKY/WX    TMP DP  RH WIND       PRES   REMARKS
BATTLE CREEK   PTSUNNY   67  57  70 SE8       30.03F
BENTON HARBOR  PTSUNNY   67  58  72 E7        30.00F
BIG RAPIDS     CLOUDY    59  58  97 E6        30.06F FOG
COLDWATER      CLOUDY    64  53  68 SE9       30.03S
FREMONT        CLOUDY    60  59  97 E6        30.05S
HOLLAND        CLOUDY    61  58  90 E10       30.04S FOG
GRAND RAPIDS   CLOUDY    60  58  92 NE6       30.05S
IONIA          CLOUDY    61  58  92 E5        30.04F
KALAMAZOO      PTSUNNY   67  55  65 SE8       30.02F
LUDINGTON      CLOUDY    62  58  87 E8        30.05F
MARSHALL       PTSUNNY   66  55  68 S9        30.02F
MOUNT PLEASANT CLOUDY    60  58  96 E7        30.07S
MUSKEGON       CLOUDY    62  59  90 E8        30.04F
SOUTH HAVEN    PTSUNNY   65  60  85 E5        30.00F
$$
MIZ016>042-011800-
NORTHERN LOWER MICHIGAN

CITY           SKY/WX    TMP DP  RH WIND       PRES   REMARKS
ALPENA         LGT RAIN  59  57  93 E7        30.13F FOG
BEAVER ISLAND  LGT RAIN  57  56  97 E9        30.15S
BELLAIRE       CLOUDY    60  56  85 NE6       30.11F
CADILLAC       CLOUDY    58  56  91 E9        30.08S
CHARLEVOIX     CLOUDY    60  56  89 E8        30.15F
FRANKFORT      CLOUDY    60  55  82 E7        30.09F
GAYLORD        CLOUDY    57  54  89 E6        30.12F FOG
GRAYLING       CLOUDY    60  56  88 E9        30.11F
HARBOR SPRINGS CLOUDY    60  56  85 E14       30.13F
HOUGHTON LAKE  CLOUDY    59  56  89 E9        30.10F
MANISTEE       CLOUDY    60  57  89 NE8       30.07F
OSCODA         LGT RAIN  59  59  99 E6        30.10F
ROGERS CITY    CLOUDY    57  55  94 E7        30.15F FOG
TRAVERSE CITY  CLOUDY    62  56  80 NE8       30.09F
$$
MIZ007>008-015-011800-
EASTERN UPPER MICHIGAN

CITY           SKY/WX    TMP DP  RH WIND       PRES   REMARKS
KINROSS        CLOUDY    61  50  67 E10       30.17F
MACKINAC ISLAN CLOUDY    60  53  78 E12G21    30.15F
NEWBERRY       CLOUDY    60  52  74 NE5       30.17S
S. S. MARIE    CLOUDY    62  49  62 SE5       30.16F
MUNISING         N/A     63  54  72 NE12      30.16F
$$
MIZ004>006-011>014-085-011800-
CENTRAL UPPER MICHIGAN

CITY           SKY/WX    TMP DP  RH WIND       PRES   REMARKS
MANISTIQUE     CLOUDY    58  56  92 E3        30.16F
ESCANABA       CLOUDY    61  54  77 NE6       30.15F
MENOMINEE      RAIN      60  57  89 NE10      30.12F
SAWYER-GWINN   PTSUNNY   61  52  72 NE14G20   30.18F
$$
MIZ001>003-009>011-084-011800-
WESTERN UPPER MICHIGAN

CITY           SKY/WX    TMP DP  RH WIND       PRES   REMARKS
IRON MOUNTAIN  CLOUDY    64  50  60 NE10      30.15F
HOUGHTON       CLOUDY    62  53  72 E7        30.20F
COPPER HARBOR    N/A     62  56  80 E6        30.20F
IRONWOOD       CLOUDY    63  51  65 E8        30.20F
$$

ABBREVIATIONS USED IN REMARKS
   TC - TEMPERATURE IN CELSIUS
  WCI - WIND CHILL INDEX
   HX - HEAT INDEX
  VSB - VISIBILITY





USA.gov is the U.S. government's official web portal to all federal, state and local government web resources and services.